Regional Weather Roundup
Issued by NWS

Home | Current Version | Previous Version | Text Only | Print | Product List | Glossary Off
Versions: 1 2 3 4 5 6 7 8 9 10 11 12 13 14 15 16 17 18 19 20 21 22 23 24 25 26 27 28 29 30 31 32 33 34 35 36 37 38 39 40 41 42 43 44 45 46 47 48 49 50

000
ASUS43 KLSX 012059
RWRMO

WEATHER SUMMARY FOR MISSOURI
NATIONAL WEATHER SERVICE SPRINGFIELD MO
400 PM CDT MON SEP 01 2014

NOTE: "FAIR" INDICATES FEW OR NO CLOUDS BELOW 12,000 FEET WITH NO
       SIGNIFICANT WEATHER AND/OR OBSTRUCTIONS TO VISIBILITY.
       CURRENT SKY AND/OR WEATHER CONDITIONS ARE NOT AVAILABLE FOR
       CHILLICOTHE AND FARMINGTON.

MOZ001>031-035>038-043-044-053-054-012200-
...NORTHERN AND WESTERN MISSOURI...

CITY           SKY/WX    TMP DP  RH WIND       PRES   REMARKS
KANSAS CTY INT CLOUDY    78  69  73 W8        29.89F
KANSAS C DTWN  CLOUDY    81  68  64 NW7       29.87F
LEE`S SUMMIT   CLOUDY    77  68  73 SW6       29.89F
ST JOSEPH      CLOUDY    80  67  64 W7        29.87F
CHILLICOTHE      N/A     80  68  66 VRB6      29.88F
KIRKSVILLE     SUNNY     80  67  64 SW10      29.88S

$$
MOZ066>068-077>081-088>096-101>105-012200-
...SOUTHWEST MISSOURI...

CITY           SKY/WX    TMP DP  RH WIND       PRES   REMARKS
SPRINGFIELD    SUNNY     85  67  54 S17       29.90F
JOPLIN         PTSUNNY   86  70  58 S12       29.87F HX  90

$$
MOZ032>034-039>042-045>050-055>058-069>072-012200-
...CENTRAL MISSOURI...

CITY           SKY/WX    TMP DP  RH WIND       PRES   REMARKS
COLUMBIA       PTSUNNY   83  67  58 W8        29.90F
JEFFERSON CITY MOSUNNY   85  66  53 VRB7      29.89S
ROLLA          MOSUNNY   80  66  62 SW10      29.92R
SEDALIA        MOSUNNY   81  67  62 W8        29.91S
OSAGE BEACH    CLOUDY    82  66  57 CALM      29.90S

$$
MOZ051-052-059>065-012200-
...EAST CENTRAL MISSOURI...

CITY           SKY/WX    TMP DP  RH WIND       PRES   REMARKS
ST LOUIS INTL  PTSUNNY   87  65  47 SW14      29.90S
SPIRIT OF STL  MOSUNNY   84  65  52 SW10      29.89R
ST CHARLES     MOSUNNY   85  65  51 NW7       29.88R

$$
MOZ072>076-082>087-097>100-106>115-012200-
...SOUTH CENTRAL AND SOUTHEAST MISSOURI...

CITY           SKY/WX    TMP DP  RH WIND       PRES   REMARKS
CAPE GIRARDEAU CLOUDY    86  74  67 SW15G23   29.92R HX  94
FARMINGTON     PTSUNNY   81  66  61 W3        29.96S
POPLAR BLUFF   PTSUNNY   86  71  60 SW18G25   29.90F HX  91
WEST PLAINS    MOSUNNY   84  66  54 S15G25    29.95F

$$



USA.gov is the U.S. government's official web portal to all federal, state and local government web resources and services.